Regional Weather Roundup
Issued by NWS Green Bay, WI

Home | Current Version | Previous Version | Graphics & Text | Print | Product List | Glossary Off
Versions: 1 2 3 4 5 6 7 8 9 10 11 12 13 14 15 16 17 18 19 20 21 22 23 24 25 26 27 28 29 30 31 32 33 34 35 36 37 38 39 40 41 42 43 44 45 46 47 48 49 50

000
ASUS43 KGRB 210910
RWRGRB

NORTH-CENTRAL AND NORTHEAST WISCONSIN REGIONAL WEATHER ROUNDUP
NATIONAL WEATHER SERVICE GREEN BAY WI
400 AM CDT TUE OCT 21 2014

WIZ005-009-010>012-018-019-211000-
NORTH CENTRAL WISCONSIN

CITY           SKY/WX    TMP DP  RH WIND       PRES   REMARKS
IRONWOOD       CLOUDY    39  39 100 E3        30.15R
MANITOWISH WTR DRIZZLE   38  38 100 N6        30.14R
ARBOR VITAE    CLOUDY    39  37  91 N5        30.14R
EAGLE RIVER    CLOUDY    38  36  91 N6        30.13R
LAND O LAKES   DRIZZLE   38  37  94 NE5       30.14R
RHINELANDER    CLOUDY    39  34  82 N5        30.13R
PHILLIPS       CLOUDY    40  34  80 NE9       30.14R
ANTIGO         CLOUDY    39  35  83 N12G21    30.12R
TOMAHAWK       CLOUDY    40  34  78 CALM      30.14R
MERRILL        CLOUDY    41  35  78 NE9G16    30.13R
$$

WIZ013-073-211000-
NORTHEAST WISCONSIN

CITY           SKY/WX    TMP DP  RH WIND       PRES   REMARKS
IRON MOUNTAIN  CLOUDY    40  36  86 N10       30.12R
MARINETTE      CLOUDY    43  36  75 N10       30.08R
OCONTO         CLOUDY    42  39  88 N7        30.09R
$$

WIZ017-030-035>037-045-211000-
CENTRAL WISCONSIN

CITY           SKY/WX    TMP DP  RH WIND       PRES   REMARKS
MEDFORD        CLEAR     37  33  88 N7        30.13R
WAUSAU         CLOUDY    42  35  76 N7G18     30.11R
MOSINEE        MOCLDY    37  36  93 N8        30.13R
MARSHFIELD     CLEAR     41  35  79 NE7       30.12R
WISC RAPIDS    CLEAR     43  36  76 NE10      30.13R
STEVENS POINT  CLEAR     37  34  90 N5        30.12S
WAUPACA        CLOUDY    44  38  82 N7        30.11S
SHAWANO        CLOUDY    44  37  77 N8        30.11R
CLINTONVILLE   CLOUDY    41  36  81 N5        30.10S
$$

WIZ038-039-048-051-211000-
FOX VALLEY

CITY           SKY/WX    TMP DP  RH WIND       PRES   REMARKS
NWS GREEN BAY  CLOUDY    44  38  79 N13       30.09R
APPLETON       CLOUDY    41  34  75 N12       30.09R
OSHKOSH        CLOUDY    44  38  79 N12       30.08R
FOND DU LAC    CLOUDY    45  37  73 N9        30.08R
$$

WIZ022-050-052-211000-
EAST CENTRAL WISCONSIN

CITY           SKY/WX    TMP DP  RH WIND       PRES   REMARKS
STURGEON BAY   CLOUDY    45  37  76 N17G23    30.07R
MANITOWOC      CLOUDY    46  40  79 N13       30.07R
SHEBOYGAN      CLOUDY    45  39  79 N8        30.07R
$$

LMZ563-521-522-541>543-211000-
LAKESHORE

STATION/POSITION TIME  TEMP    WIND        PRES    VSBY  WAVE
                       AIR SEA DIR/SP/G                  HT/PER
                 (UTC) (F)     (DEG/KT/KT) (MB)    (MI)  (FT/S)
SHEBOYGAN LKSHOR 0900   46 50  330/ 12/ 15 1018.5R
KEWAUNEE LKSHORE 0900   45     350/  8/ 14 1017.0R
NORTHPORT PIER   0900   46     360/ 21/ 26 1017.9S
N MID LAKE BUOY  0900   46 51  360/ 21/ 25 1017.3R         4/ 5
SISTER BAY LKSHO 0800          360/ 19/ 30   N/A
CHAMBERS ISLAND  0900   45     330/ 19/ 23 1018.6R
MENOMINEE LKSHOR 0900   44     340/ 15/ 19 1019.2R
$$


USA.gov is the U.S. government's official web portal to all federal, state and local government web resources and services.